This demonstration page uses our WeatherBlox Daily Observations layout. Learn more.

Left ArrowRight Arrow

41.55636, -103.73856

Hourly Observations for February 4, 2018

Temp ( °F °C ) Dew Point ( °F °C ) Humidity (%) Winds ( mph kmh ) Pressure ( in mb ) Visibility ( mi km ) Precip ( " mm )
12:53 am 00:53 Cloudy 12 -11.1 6 -14.4 77 77 NNE 15 24 30.14 1021 7 11 N/A
1:20 am 01:20 Cloudy 10 -12 7 -14 85 85 NE 15 24 30.39 1029 7 11 N/A
1:53 am 01:53 Cloudy 10 -12.2 4 -15.6 76 76 NE 14 22 30.16 1022 7 11 N/A
2:37 am 02:37 Cloudy with Light Snow 8 -13.3 2 -16.7 76 76 NE 14 22 30.48 1032 3 5 N/A
2:53 am 02:53 Cloudy with Light Snow 8 -13.3 2 -16.7 76 76 NNE 14 22 30.24 1024 3 5 N/A
3:00 am 03:00 Cloudy with Light Snow 9 -13 1 -17 72 72 NNE 15 24 30.48 1032 3 4 N/A
3:28 am 03:28 Cloudy with Light Snow 6 -14.4 -1 -18.3 73 73 NNE 14 22 30.50 1033 3 5 N/A
3:53 am 03:53 Cloudy with Haze 6 -14.4 -1 -18.3 73 73 NNE 7 11 30.28 1025 6 10 N/A
4:53 am 04:53 Cloudy 6 -14.4 -2 -18.9 69 69 N 9 15 30.33 1027 7 11 N/A
5:53 am 05:53 Cloudy with Light Snow 5 -15 N/A 79 79 NNW 8 13 30.38 1029 3 5 0.01 0.25
6:15 am 06:15 Cloudy with Light Snow 5 -15 -1 -18.3 76 76 NNW 14 22 30.59 1036 3 4 N/A
6:23 am 06:23 Cloudy with Light Snow 5 -15 -1 -18.3 76 76 N 13 20 30.59 1036 3 5 N/A
6:53 am 06:53 Cloudy with Light Snow 5 -15 -1 -18.3 76 76 N 9 15 30.39 1029 3 5 0.01 0.25
7:53 am 07:53 Cloudy with Light Snow 5 -15 -2 -18.9 72 72 N 13 20 30.41 1030 5 8 N/A
8:53 am 08:53 Cloudy 6 -14.4 -3 -19.4 66 66 NNW 8 13 30.43 1031 10 16 N/A
9:53 am 09:53 Cloudy 7 -13.9 -1 -18.3 70 70 N N/A 30.44 1031 10 16 N/A
10:53 am 10:53 Cloudy with Light Snow 7 -13.9 N/A 73 73 SSE 5 7 30.43 1031 4 6 N/A
11:53 am 11:53 Cloudy with Light Snow 8 -13.3 1 -17.2 73 73 SE 7 11 30.38 1029 9 14 N/A
12:53 pm 12:53 Cloudy with Light Snow 9 -12.8 3 -16.1 77 77 ESE 10 17 30.34 1027 5 8 N/A
1:24 pm 13:24 Cloudy with Light Snow 9 -13 3 -16 78 78 ESE 8 13 30.48 1032 2 3 N/A
1:43 pm 13:43 Cloudy with Light Snow 10 -12.2 5 -15 80 80 SE 9 15 30.42 1030 1 2 0.01 0.25
1:49 pm 13:49 Cloudy with Light Snow 10 -12 5 -15 79 79 ESE 10 17 30.42 1030 2 3 0.01 0.25
1:53 pm 13:53 Cloudy with Light Snow 10 -12.2 5 -15 80 80 ESE 10 17 30.30 1026 4 6 0.01 0.25
2:35 pm 14:35 Cloudy with Light Snow 10 -12.2 6 -14.4 84 84 E 8 13 30.39 1029 2 3 N/A
2:49 pm 14:49 Cloudy with Light Snow 10 -12 7 -14 85 85 E 8 13 30.39 1029 1 2 0.01 0.25
2:53 pm 14:53 Cloudy with Light Snow 11 -11.7 6 -14.4 81 81 E 9 15 30.27 1025 1 2 0.01 0.25
3:17 pm 15:17 Cloudy with Light Snow 11 -11.7 7 -13.9 84 84 ESE 8 13 30.39 1029 2 3 N/A
3:21 pm 15:21 Cloudy with Light Snow 11 -11.7 7 -13.9 84 84 ESE 9 15 30.39 1029 2 3 N/A
3:28 pm 15:28 Cloudy with Light Snow 11 -11.7 7 -13.9 84 84 ESE 9 15 30.39 1029 1 2 N/A
3:38 pm 15:38 Cloudy with Light Snow 10 -12 7 -14 85 85 ESE 10 17 30.39 1029 2 3 N/A
3:53 pm 15:53 Cloudy with Light Snow 11 -11.7 7 -13.9 84 84 E 9 15 30.24 1024 2 2 N/A
4:03 pm 16:03 Cloudy with Light Snow 11 -11.7 7 -13.9 84 84 SE 9 15 30.33 1027 3 5 0.01 0.25
4:53 pm 16:53 Cloudy with Light Snow 12 -11.1 8 -13.3 84 84 E 8 13 30.21 1023 5 8 0.01 0.25
5:53 pm 17:53 Cloudy 12 -11.1 9 -12.8 87 87 ESE 7 11 30.19 1022 10 16 N/A
6:53 pm 18:53 Cloudy 13 -10.6 10 -12.2 88 88 ESE 8 13 30.16 1021 10 16 N/A
7:53 pm 19:53 Clear 10 -12.2 8 -13.3 92 92 E 6 9 30.13 1020 10 16 N/A
8:53 pm 20:53 Clear 12 -11.1 10 -12.2 92 92 ENE 9 15 30.09 1019 10 16 N/A
9:53 pm 21:53 Clear 16 -8.9 12 -11.1 84 84 ESE 8 13 30.01 1016 10 16 N/A
10:53 pm 22:53 Clear 17 -8.3 14 -10 88 88 ESE 12 19 29.96 1015 10 16 N/A
11:53 pm 23:53 Clear 18 -7.8 15 -9.4 88 88 E 10 17 29.90 1013 10 16 N/A

Powered by AerisWeather